When you browse on this site, cookies collect data to enhance your experience and personalize the content and advertising you see.
Visit our Privacy Policy to learn more. By continuing to use the site, you agree to this use of cookies and data.
  • In Schweiz
  • Länderverzeichnis
  • Für 7 Tage
  • Wassertemperatur
  • Wetterkarte
  • Widgets
  • user-avatar
    Anmelden

    Stündliche Wetter Oksford

    Heute, 9 Dezember, Montag

    Zeit Temperatur Niederschläge Wind Luftdruck Luftfeuchtigkeit
    00:00 +5°C° 0 mm 5 m/S 737 mmHg 90%
    01:00 +4°C° 0.2 mm 6 m/S 737 mmHg 90%
    02:00 +4°C° 0.2 mm 7 m/S 737 mmHg 90%
    03:00 +4°C° 0.2 mm 8 m/S 737 mmHg 90%
    04:00 +4°C° 0.2 mm 8 m/S 739 mmHg 86%
    05:00 +5°C° 0.2 mm 9 m/S 741 mmHg 83%
    06:00 +5°C° 0 mm 7 m/S 743 mmHg 82%
    07:00 +5°C° 0 mm 7 m/S 745 mmHg 81%
    08:00 +5°C° 0 mm 7 m/S 747 mmHg 80%
    09:00 +4°C° 0 mm 7 m/S 749 mmHg 79%
    10:00 +5°C° 0 mm 7 m/S 751 mmHg 76%
    11:00 +5°C° 0 mm 8 m/S 753 mmHg 73%
    12:00 +6°C° 0 mm 8 m/S 754 mmHg 70%
    13:00 +5°C° 0 mm 7 m/S 755 mmHg 71%
    14:00 +5°C° 0 mm 6 m/S 756 mmHg 72%
    15:00 +5°C° 0 mm 4 m/S 757 mmHg 74%
    16:00 +4°C° 0 mm 4 m/S 758 mmHg 76%
    17:00 +3°C° 0 mm 3 m/S 760 mmHg 79%
    18:00 +3°C° 0 mm 3 m/S 761 mmHg 81%
    19:00 +2°C° 0 mm 3 m/S 761 mmHg 83%
    20:00 +3°C° 0 mm 2 m/S 762 mmHg 85%
    21:00 +3°C° 0 mm 2 m/S 762 mmHg 86%
    22:00 +3°C° 0 mm 2 m/S 762 mmHg 87%
    23:00 +2°C° 0 mm 2 m/S 762 mmHg 88%

    Morgen, 10 Dezember, Dienstag

    Zeit Temperatur Niederschläge Wind Luftdruck Luftfeuchtigkeit
    00:00 +2°C° 0 mm 2 m/S 762 mmHg 88%
    01:00 +1°C° 0 mm 3 m/S 762 mmHg 88%
    02:00 +1°C° 0 mm 3 m/S 761 mmHg 88%
    03:00 +1°C° 0 mm 3 m/S 761 mmHg 88%
    04:00 +1°C° 0 mm 4 m/S 760 mmHg 87%
    05:00 +2°C° 0 mm 5 m/S 759 mmHg 86%
    06:00 +2°C° 0 mm 6 m/S 759 mmHg 85%
    07:00 +3°C° 0.1 mm 7 m/S 758 mmHg 86%
    08:00 +4°C° 0.1 mm 7 m/S 757 mmHg 87%
    09:00 +5°C° 0.1 mm 8 m/S 756 mmHg 88%
    10:00 +6°C° 0.4 mm 9 m/S 755 mmHg 89%
    11:00 +6°C° 0.4 mm 10 m/S 754 mmHg 89%
    12:00 +7°C° 0.4 mm 11 m/S 752 mmHg 89%
    13:00 +7°C° 0.4 mm 11 m/S 751 mmHg 89%
    14:00 +8°C° 0.4 mm 11 m/S 749 mmHg 89%
    15:00 +8°C° 0.4 mm 11 m/S 747 mmHg 90%
    16:00 +9°C° 0.5 mm 11 m/S 747 mmHg 90%
    17:00 +9°C° 0.5 mm 11 m/S 747 mmHg 90%
    18:00 +11°C° 0.5 mm 11 m/S 746 mmHg 91%
    19:00 +8°C° 0.9 mm 10 m/S 747 mmHg 89%
    20:00 +7°C° 0.9 mm 8 m/S 747 mmHg 88%
    21:00 +5°C° 0.9 mm 6 m/S 748 mmHg 87%
    22:00 +5°C° 0 mm 5 m/S 748 mmHg 86%
    23:00 +5°C° 0 mm 5 m/S 749 mmHg 85%

    übermorgen, 11 Dezember, Mittwoch

    Zeit Temperatur Niederschläge Wind Luftdruck Luftfeuchtigkeit
    00:00 +5°C° 0 mm 4 m/S 750 mmHg 83%
    01:00 +4°C° 0 mm 4 m/S 750 mmHg 84%
    02:00 +4°C° 0 mm 4 m/S 750 mmHg 85%
    03:00 +3°C° 0 mm 4 m/S 750 mmHg 86%
    04:00 +3°C° 0 mm 4 m/S 749 mmHg 86%
    05:00 +2°C° 0 mm 3 m/S 749 mmHg 87%
    06:00 +2°C° 0 mm 3 m/S 749 mmHg 88%
    07:00 +1°C° 0 mm 4 m/S 749 mmHg 88%
    08:00 +3°C° 0 mm 4 m/S 748 mmHg 88%
    09:00 +3°C° 0 mm 4 m/S 748 mmHg 88%
    10:00 +3°C° 0 mm 5 m/S 747 mmHg 84%
    11:00 +5°C° 0 mm 5 m/S 747 mmHg 81%
    12:00 +6°C° 0 mm 5 m/S 746 mmHg 77%
    13:00 +4°C° 0.2 mm 6 m/S 745 mmHg 80%
    14:00 +3°C° 0.2 mm 7 m/S 745 mmHg 82%
    15:00 +3°C° 0.2 mm 7 m/S 744 mmHg 85%
    16:00 +2°C° 0 mm 7 m/S 745 mmHg 85%
    17:00 +2°C° 0 mm 6 m/S 745 mmHg 85%
    18:00 +1°C° 0 mm 5 m/S 745 mmHg 85%
    19:00 +1°C° 0 mm 5 m/S 746 mmHg 85%
    20:00 0°C° 0 mm 5 m/S 746 mmHg 85%
    21:00 0°C° 0 mm 5 m/S 747 mmHg 85%
    22:00 0°C° 0 mm 5 m/S 747 mmHg 85%
    23:00 0°C° 0 mm 5 m/S 748 mmHg 86%

    12 Dezember, Donnerstag

    Zeit Temperatur Niederschläge Wind Luftdruck Luftfeuchtigkeit
    00:00 0°C° 0 mm 4 m/S 748 mmHg 86%
    01:00 0°C° 0 mm 4 m/S 748 mmHg 86%
    02:00 0°C° 0 mm 4 m/S 748 mmHg 87%
    03:00 0°C° 0 mm 4 m/S 747 mmHg 87%
    04:00 0°C° 0 mm 4 m/S 747 mmHg 89%
    05:00 0°C° 0 mm 5 m/S 746 mmHg 91%
    06:00 0°C° 0 mm 5 m/S 745 mmHg 93%
    07:00 +1°C° 0 mm 5 m/S 744 mmHg 91%
    08:00 +2°C° 0 mm 6 m/S 743 mmHg 89%
    09:00 +2°C° 0 mm 7 m/S 741 mmHg 88%
    10:00 +4°C° 0.8 mm 8 m/S 739 mmHg 89%
    11:00 +5°C° 0.8 mm 9 m/S 736 mmHg 90%
    12:00 +6°C° 0.8 mm 11 m/S 734 mmHg 91%
    13:00 +7°C° 2.3 mm 10 m/S 732 mmHg 91%
    14:00 +7°C° 2.3 mm 9 m/S 729 mmHg 90%
    15:00 +9°C° 2.3 mm 8 m/S 727 mmHg 89%
    16:00 +7°C° 1.1 mm 9 m/S 726 mmHg 85%
    17:00 +6°C° 1.1 mm 10 m/S 726 mmHg 81%
    18:00 +5°C° 1.1 mm 10 m/S 725 mmHg 77%
    19:00 +3°C° 0.1 mm 10 m/S 725 mmHg 78%
    20:00 +2°C° 0.1 mm 9 m/S 726 mmHg 80%
    21:00 +1°C° 0.1 mm 9 m/S 726 mmHg 82%
    22:00 0°C° 0 mm 9 m/S 725 mmHg 80%
    23:00 0°C° 0 mm 9 m/S 725 mmHg 78%

    13 Dezember, Freitag

    Zeit Temperatur Niederschläge Wind Luftdruck Luftfeuchtigkeit
    00:00 0°C° 0 mm 8 m/S 724 mmHg 77%
    01:00 0°C° 0 mm 9 m/S 724 mmHg 76%
    02:00 0°C° 0 mm 9 m/S 723 mmHg 76%
    03:00 0°C° 0 mm 9 m/S 722 mmHg 76%
    04:00 -1°C° 0 mm 11 m/S 722 mmHg 77%
    05:00 0°C° 0 mm 12 m/S 721 mmHg 78%
    06:00 +1°C° 0 mm 14 m/S 721 mmHg 79%
    07:00 +1°C° 0 mm 13 m/S 722 mmHg 79%
    08:00 +3°C° 0 mm 13 m/S 723 mmHg 78%
    09:00 +4°C° 0 mm 13 m/S 724 mmHg 77%
    10:00 +4°C° 0 mm 12 m/S 725 mmHg 76%
    11:00 +4°C° 0 mm 12 m/S 727 mmHg 74%
    12:00 +4°C° 0 mm 12 m/S 728 mmHg 73%
    13:00 +4°C° 0.1 mm 11 m/S 729 mmHg 75%
    14:00 +3°C° 0.1 mm 11 m/S 729 mmHg 77%
    15:00 +3°C° 0.1 mm 11 m/S 730 mmHg 79%
    16:00 +2°C° 0.1 mm 10 m/S 730 mmHg 78%
    17:00 +2°C° 0.1 mm 10 m/S 731 mmHg 78%
    18:00 +2°C° 0.1 mm 9 m/S 731 mmHg 77%
    19:00 +1°C° 0 mm 9 m/S 731 mmHg 77%
    20:00 +1°C° 0 mm 8 m/S 732 mmHg 76%
    21:00 +1°C° 0 mm 8 m/S 732 mmHg 75%
    22:00 +1°C° 0 mm 8 m/S 732 mmHg 75%
    23:00 +1°C° 0 mm 8 m/S 733 mmHg 74%

    14 Dezember, Samstag

    Zeit Temperatur Niederschläge Wind Luftdruck Luftfeuchtigkeit
    00:00 0°C° 0 mm 8 m/S 733 mmHg 74%
    01:00 0°C° 0 mm 7 m/S 734 mmHg 74%
    02:00 0°C° 0 mm 7 m/S 734 mmHg 74%
    03:00 +1°C° 0 mm 6 m/S 735 mmHg 74%
    04:00 +1°C° 0 mm 6 m/S 735 mmHg 76%
    05:00 +1°C° 0 mm 5 m/S 735 mmHg 78%
    06:00 +1°C° 0 mm 5 m/S 735 mmHg 80%
    07:00 +1°C° 0 mm 5 m/S 736 mmHg 82%
    08:00 +1°C° 0 mm 5 m/S 736 mmHg 85%
    09:00 +2°C° 0 mm 5 m/S 736 mmHg 88%
    10:00 +2°C° 0.3 mm 6 m/S 736 mmHg 89%
    11:00 +2°C° 0.3 mm 6 m/S 737 mmHg 89%
    12:00 +3°C° 0.3 mm 6 m/S 737 mmHg 90%
    13:00 +3°C° 0.1 mm 7 m/S 737 mmHg 84%
    14:00 +3°C° 0.1 mm 7 m/S 738 mmHg 78%
    15:00 +3°C° 0.1 mm 7 m/S 739 mmHg 73%
    16:00 +2°C° 0 mm 6 m/S 739 mmHg 74%
    17:00 +1°C° 0 mm 5 m/S 740 mmHg 76%
    18:00 0°C° 0 mm 4 m/S 740 mmHg 77%
    19:00 +1°C° 0 mm 4 m/S 740 mmHg 78%
    20:00 +1°C° 0 mm 4 m/S 740 mmHg 80%
    21:00 +1°C° 0 mm 4 m/S 739 mmHg 81%
    22:00 +2°C° 0.6 mm 5 m/S 738 mmHg 84%
    23:00 +3°C° 0.6 mm 7 m/S 737 mmHg 88%
    Mehr zeigen